Columbia, SC

12:33 PM EST on January 20, 2018 (GMT -0500)
Columbia Metro

Weather History for KCAE - June, 2014

Change the Weather History Date:

Wednesday, June 18, 2014

  Actual Average Record
Temperature  
Mean Temperature 84 °F 80 °F  
Max Temperature 96 °F 91 °F 103 °F (1970)
Min Temperature 71 °F 69 °F 55 °F (1961)
Degree Days  
Heating Degree Days 0 0  
Month to date heating degree days 0 0  
Since 1 June heating degree days 0 0  
Since 1 July heating degree days 2560 2551  
Cooling Degree Days 19 15  
Month to date cooling degree days 290 235  
Year to date cooling degree days 704 556  
Since 1 June cooling degree days 290 235  
Growing Degree Days 34 (Base 50)    
Moisture  
Dew Point 64 °F    
Average Humidity 55    
Maximum Humidity 79    
Minimum Humidity 30    
Precipitation  
Precipitation 0.00 in 0.17 in 3.16 in (2003)
Month to date precipitation 0.88 2.75  
Year to date precipitation 19.84 19.26  
Sea Level Pressure  
Sea Level Pressure 30.11 in    
Wind  
Wind Speed 5 mph (SW)    
Max Wind Speed 13 mph    
Max Gust Speed 15 mph    
Visibility 10 miles    
Events      
T = Trace of Precipitation, MM = Missing Value Source: NWS Daily Summary

Daily Weather History Graph

Daily Weather History Graph

Search for Another Location

Airport or City:

Trip Planner

Search our weather history database for the weather conditions in past years. The results will help you decide how hot, cold, wet, or windy it might be!

Date:

Astronomy

Jun. 18, 2014 Rise Set
Actual Time 6:13 AM EDT 8:38 PM EDT
Civil Twilight 5:44 AM EDT 9:07 PM EDT
Nautical Twilight 5:08 AM EDT 9:43 PM EDT
Astronomical Twilight 4:28 AM EDT 10:22 PM EDT
Moon 12:20 AM EDT (6/18) 12:19 PM EDT (6/18)
Length of Visible Light 15h 23m
Length of Day
14h 24m
Waning Gibbous, 63% of the Moon is Illuminated
Jun 18
Waning Gibbous
Jun 19
Last Quarter
Jun 27
New
Jul 5
First Quarter
Jul 12
Full

Hourly Weather History & Observations

Time (EDT) Temp. Heat Index Dew Point Humidity Pressure Visibility Wind Dir Wind Speed Gust Speed Precip Events Conditions
12:56 AM 79.0 °F - 66.9 °F 66% 30.13 in 10.0 mi SW 4.6 mph - N/A   Clear
1:56 AM 77.0 °F - 64.4 °F 65% 30.13 in 10.0 mi West 3.5 mph - N/A   Clear
2:56 AM 75.9 °F - 64.9 °F 69% 30.12 in 10.0 mi Calm Calm - N/A   Clear
3:56 AM 73.0 °F - 64.9 °F 76% 30.11 in 10.0 mi SW 3.5 mph - N/A   Clear
4:56 AM 72.0 °F - 64.9 °F 78% 30.11 in 10.0 mi West 5.8 mph - N/A   Clear
5:56 AM 72.0 °F - 64.9 °F 78% 30.12 in 10.0 mi Calm Calm - N/A   Clear
6:56 AM 71.1 °F - 64.9 °F 81% 30.13 in 10.0 mi Calm Calm - N/A   Clear
7:56 AM 75.0 °F - 66.0 °F 73% 30.15 in 10.0 mi SSW 4.6 mph - N/A   Clear
8:56 AM 79.0 °F - 66.9 °F 66% 30.15 in 10.0 mi WSW 5.8 mph - N/A   Clear
9:56 AM 84.0 °F 86.3 °F 66.0 °F 55% 30.14 in 10.0 mi WSW 6.9 mph - N/A   Clear
10:56 AM 86.0 °F 87.6 °F 64.9 °F 49% 30.14 in 10.0 mi SW 4.6 mph - N/A   Clear
11:56 AM 89.1 °F 92.1 °F 66.9 °F 48% 30.14 in 10.0 mi Variable 4.6 mph - N/A   Clear
12:56 PM 91.0 °F 93.8 °F 66.0 °F 44% 30.12 in 10.0 mi SSW 4.6 mph - N/A   Partly Cloudy
1:56 PM 93.9 °F 95.2 °F 63.0 °F 36% 30.11 in 10.0 mi Variable 4.6 mph - N/A   Scattered Clouds
2:56 PM 95.0 °F 94.8 °F 60.1 °F 31% 30.08 in 10.0 mi SW 5.8 mph - N/A   Partly Cloudy
3:56 PM 93.9 °F 93.2 °F 59.0 °F 31% 30.08 in 10.0 mi Variable 6.9 mph - N/A   Partly Cloudy
4:56 PM 95.0 °F 94.4 °F 59.0 °F 30% 30.06 in 10.0 mi South 5.8 mph - N/A   Partly Cloudy
5:56 PM 95.0 °F 95.6 °F 62.1 °F 33% 30.06 in 10.0 mi South 9.2 mph - N/A   Scattered Clouds
6:56 PM 93.0 °F 94.2 °F 63.0 °F 37% 30.06 in 10.0 mi South 10.4 mph - N/A   Scattered Clouds
7:56 PM 89.1 °F 91.0 °F 64.9 °F 45% 30.07 in 10.0 mi South 5.8 mph - N/A   Scattered Clouds
8:56 PM 84.9 °F 86.6 °F 64.9 °F 51% 30.07 in 10.0 mi South 3.5 mph - N/A   Scattered Clouds
9:56 PM 84.0 °F 85.8 °F 64.9 °F 53% 30.08 in 10.0 mi South 3.5 mph - N/A   Scattered Clouds
10:56 PM 82.0 °F 83.4 °F 64.0 °F 54% 30.10 in 10.0 mi SW 3.5 mph - N/A   Clear
11:56 PM 80.1 °F 82.3 °F 66.9 °F 64% 30.12 in 10.0 mi SW 4.6 mph - N/A   Clear